GW4081 Weather Reports


time (UTC)temp
C
wind
direction
speed
KPH
gust
KPH
rain 1hr
cm
rain 24hr
cm
rain mn
cm
humidity
%
barometer
mb
20260906205604 40 169 8.0 19.3 0.00 0.00 0.00 35 1012.2
20260906205104 39 174 12.9 25.7 0.00 0.00 0.00 35 1012.3
20260906204104 39 173 14.5 25.7 0.00 0.00 0.00 36 1012.4
20260906203604 39 174 9.7 19.3 0.00 0.00 0.00 36 1012.5
20260906203104 40 192 4.8 19.3 0.00 0.00 0.00 35 1012.5
20260906202604 40 119 8.0 14.5 0.00 0.00 0.00 35 1012.6
20260906202105 39 221 4.8 14.5 0.00 0.00 0.00 36 1012.6
20260906201104 38 118 11.3 20.9 0.00 0.00 0.00 36 1012.7
20260906200604 38 215 6.4 25.7 0.00 0.00 0.00 37 1012.8
20260906200104 39 139 17.7 25.7 0.00 0.00 0.00 37 1012.9
20260906195605 39 121 8.0 24.1 0.00 0.00 0.00 37 1013.0
20260906195105 39 193 9.7 12.9 0.00 0.00 0.00 35 1013.0
20260906194604 38 144 6.4 16.1 0.00 0.00 0.00 39 1013.1
20260906194104 38 53 8.0 24.1 0.00 0.00 0.00 40 1013.3
20260906193604 38 134 12.9 24.1 0.00 0.00 0.00 39 1013.3
20260906193104 38 90 8.0 22.5 0.00 0.00 0.00 38 1013.4
20260906192104 38 173 1.6 16.1 0.00 0.00 0.00 40 1013.5
20260906191604 38 178 4.8 22.5 0.00 0.00 0.00 39 1013.6
20260906191104 38 205 14.5 25.7 0.00 0.00 0.00 39 1013.7
20260906190103 38 152 12.9 20.9 0.00 0.00 0.00 39 1013.8
20260906185604 37 192 6.4 19.3 0.00 0.00 0.00 42 1013.8
20260906185104 37 127 8.0 19.3 0.00 0.00 0.00 41 1013.9
20260906184603 38 183 9.7 16.1 0.00 0.00 0.00 40 1013.9
20260906184104 38 101 6.4 16.1 0.00 0.00 0.00 41 1014.0
20260906182604 37 181 6.4 19.3 0.00 0.00 0.00 41 1014.2
20260906182104 36 178 3.2 14.5 0.00 0.00 0.00 45 1014.3
20260906181604 36 67 1.6 14.5 0.00 0.00 0.00 45 1014.3
20260906181104 36 109 6.4 19.3 0.00 0.00 0.00 44 1014.4
20260906180604 36 145 4.8 19.3 0.00 0.00 0.00 44 1014.4
20260906175604 36 126 8.0 16.1 0.00 0.00 0.00 45 1014.6
20260906175104 36 134 4.8 14.5 0.00 0.00 0.00 45 1014.7
20260906174604 36 170 4.8 19.3 0.00 0.00 0.00 45 1014.8
20260906174103 36 187 3.2 25.7 0.00 0.00 0.00 45 1014.9
20260906173604 36 177 14.5 25.7 0.00 0.00 0.00 44 1015.0
20260906172604 36 125 6.4 14.5 0.00 0.00 0.00 45 1015.2
20260906171604 36 155 3.2 19.3 0.00 0.00 0.00 46 1015.3
20260906171104 36 167 8.0 19.3 0.00 0.00 0.00 45 1015.4
20260906170603 36 158 11.3 19.3 0.00 0.00 0.00 44 1015.5
20260906170105 36 217 1.6 12.9 0.00 0.00 0.00 46 1015.5
20260906165604 36 172 3.2 19.3 0.00 0.00 0.00 45 1015.7
20260906165104 36 150 8.0 19.3 0.00 0.00 0.00 46 1015.7
20260906164604 36 165 9.7 19.3 0.00 0.00 0.00 46 1015.8
20260906164103 36 53 4.8 16.1 0.00 0.00 0.00 47 1015.8
20260906163604 36 77 4.8 16.1 0.00 0.00 0.00 47 1015.9
20260906162604 36 285 4.8 16.1 0.00 0.00 0.00 48 1015.8
20260906162103 36 286 3.2 16.1 0.00 0.00 0.00 48 1015.9
20260906161604 35 217 3.2 12.9 0.00 0.00 0.00 48 1015.9
20260906161104 35 222 4.8 12.9 0.00 0.00 0.00 49 1015.9
20260906160604 35 189 8.0 16.1 0.00 0.00 0.00 49 1015.9
20260906155604 35 226 4.8 16.1 0.00 0.00 0.00 49 1015.7
20260906155103 34 220 8.0 16.1 0.00 0.00 0.00 50 1015.7
20260906154604 34 223 8.0 14.5 0.00 0.00 0.00 50 1015.7
20260906154104 34 181 4.8 14.5 0.00 0.00 0.00 51 1015.7
20260906153603 33 212 8.0 14.5 0.00 0.00 0.00 52 1015.6
20260906153104 33 215 6.4 12.9 0.00 0.00 0.00 53 1015.7
20260906152104 33 234 4.8 12.9 0.00 0.00 0.00 54 1015.7
20260906151604 33 230 8.0 12.9 0.00 0.00 0.00 54 1015.6
20260906151104 33 212 8.0 14.5 0.00 0.00 0.00 54 1015.7
20260906150104 33 211 6.4 14.5 0.00 0.00 0.00 54 1015.6
20260906145604 32 212 8.0 12.9 0.00 0.00 0.00 54 1015.6
20260906145104 32 242 4.8 11.3 0.00 0.00 0.00 55 1015.6
20260906144603 32 226 8.0 12.9 0.00 0.00 0.00 56 1015.6
20260906144104 32 228 6.4 12.9 0.00 0.00 0.00 56 1015.6
20260906143604 32 230 8.0 14.5 0.00 0.00 0.00 57 1015.7
20260906143104 31 236 8.0 16.1 0.00 0.00 0.00 58 1015.6
20260906142604 31 213 9.7 16.1 0.00 0.00 0.00 59 1015.6
20260906141604 31 212 9.7 14.5 0.00 0.00 0.00 60 1015.5
20260906141104 30 205 8.0 14.5 0.00 0.00 0.00 60 1015.6
20260906135604 30 219 9.7 14.5 0.00 0.00 0.00 61 1015.4
20260906135104 30 207 9.7 16.1 0.00 0.00 0.00 61 1015.3
20260906134604 30 222 9.7 16.1 0.00 0.00 0.00 61 1015.3
20260906133604 28 213 8.0 12.9 0.00 0.00 0.00 63 1015.3
20260906133103 28 193 4.8 11.3 0.00 0.00 0.00 64 1015.3
20260906132604 28 205 8.0 11.3 0.00 0.00 0.00 64 1015.3
20260906132104 28 194 8.0 11.3 0.00 0.00 0.00 65 1015.2
20260906131604 28 186 8.0 11.3 0.00 0.00 0.00 66 1015.2
20260906130604 27 194 4.8 9.7 0.00 0.00 0.00 67 1015.0
20260906130104 27 174 4.8 9.7 0.00 0.00 0.00 67 1015.0
20260906125104 27 180 4.8 9.7 0.00 0.00 0.00 68 1014.9
20260906124604 27 177 4.8 9.7 0.00 0.00 0.00 68 1014.9
20260906123604 26 185 4.8 8.0 0.00 0.00 0.00 68 1014.7
20260906122603 26 169 1.6 8.0 0.00 0.00 0.00 69 1014.6
20260906122104 26 198 0.0 3.2 0.00 0.00 0.00 69 1014.6
20260906121604 26 198 0.0 3.2 0.00 0.00 0.00 69 1014.6
20260906121104 26 198 0.0 0.0 0.00 0.00 0.00 69 1014.6
20260906115604 26 198 3.2 8.0 0.00 0.00 0.00 67 1014.5
20260906114103 27 175 6.4 9.7 0.00 0.00 0.00 66 1014.3
20260906113603 27 175 4.8 11.3 0.00 0.00 0.00 66 1014.2
20260906112103 27 165 4.8 9.7 0.00 0.00 0.00 66 1014.0
20260906111604 27 170 4.8 9.7 0.00 0.00 0.00 66 1013.9
20260906111103 27 163 4.8 9.7 0.00 0.00 0.00 66 1013.9
20260906110604 27 150 4.8 8.0 0.00 0.00 0.00 66 1013.9
20260906110104 27 162 4.8 8.0 0.00 0.00 0.00 66 1013.9
20260906105603 27 171 4.8 11.3 0.00 0.00 0.00 66 1013.9
20260906105104 27 164 8.0 11.3 0.00 0.00 0.00 66 1013.9
20260906104604 27 166 6.4 11.3 0.00 0.00 0.00 65 1013.8
20260906104104 27 176 4.8 9.7 0.00 0.00 0.00 65 1013.7
20260906103603 27 162 4.8 9.7 0.00 0.00 0.00 65 1013.7
20260906103103 27 160 4.8 8.0 0.00 0.00 0.00 65 1013.7
20260906102604 27 157 4.8 8.0 0.00 0.00 0.00 65 1013.7
20260906102104 27 186 3.2 4.8 0.00 0.00 0.00 65 1013.7
20260906101603 27 186 0.0 4.8 0.00 0.00 0.00 64 1013.7
20260906101104 27 186 3.2 4.8 0.00 0.00 0.00 64 1013.8
20260906100103 27 173 3.2 8.0 0.00 0.00 0.00 63 1013.6
20260906095604 27 184 3.2 4.8 0.00 0.00 0.00 63 1013.7
20260906095104 27 184 4.8 4.8 0.00 0.00 0.00 63 1013.6
20260906094103 27 198 3.2 4.8 0.00 0.00 0.00 64 1013.6
20260906093603 27 198 4.8 4.8 0.00 0.00 0.00 63 1013.6
20260906093103 27 198 4.8 4.8 0.00 0.00 0.00 63 1013.6
20260906092104 27 178 3.2 4.8 0.00 0.00 0.00 63 1013.8
20260906091604 27 178 1.6 4.8 0.00 0.00 0.00 62 1013.7
20260906091104 27 178 3.2 4.8 0.00 0.00 0.00 62 1013.6
20260906090604 27 178 3.2 4.8 0.00 0.00 0.00 62 1013.5
20260906085604 27 177 3.2 4.8 0.00 0.00 0.00 61 1013.5
20260906084103 27 190 4.8 8.0 0.00 0.00 0.00 62 1013.5
20260906083604 27 197 6.4 9.7 0.00 0.00 0.00 61 1013.4
20260906083104 28 203 4.8 9.7 0.00 0.00 0.00 61 1013.5
20260906082603 28 197 6.4 8.0 0.00 0.00 0.00 61 1013.5
20260906082103 28 194 4.8 8.0 0.00 0.00 0.00 60 1013.4
20260906081603 28 194 4.8 8.0 0.00 0.00 0.00 60 1013.4
20260906081104 28 193 4.8 4.8 0.00 0.00 0.00 60 1013.3
20260906080604 28 198 4.8 8.0 0.00 0.00 0.00 60 1013.4
20260906080104 28 200 4.8 8.0 0.00 0.00 0.00 60 1013.4
20260906075604 28 188 4.8 4.8 0.00 0.00 0.00 60 1013.4
20260906075104 28 188 4.8 4.8 0.00 0.00 0.00 60 1013.4
20260906074604 28 188 3.2 4.8 0.00 0.00 0.00 59 1013.4
20260906073103 28 198 4.8 8.0 0.00 0.00 0.00 59 1013.4
20260906072603 28 192 6.4 8.0 0.00 0.00 0.00 59 1013.5
20260906072103 28 190 4.8 8.0 0.00 0.00 0.00 59 1013.5
20260906070604 28 189 4.8 8.0 0.00 0.00 0.00 59 1013.5
20260906065604 28 180 4.8 9.7 0.00 0.00 0.00 58 1013.5
20260906065104 28 180 4.8 9.7 0.00 0.00 0.00 58 1013.5
20260906064603 28 177 4.8 8.0 0.00 0.00 0.00 58 1013.5
20260906064103 29 187 4.8 8.0 0.00 0.00 0.00 58 1013.4
20260906063603 29 187 4.8 8.0 0.00 0.00 0.00 58 1013.4
20260906063103 29 192 4.8 9.7 0.00 0.00 0.00 57 1013.5
20260906062604 30 197 4.8 9.7 0.00 0.00 0.00 56 1013.5
20260906062103 30 195 6.4 9.7 0.00 0.00 0.00 56 1013.5
20260906061604 30 187 8.0 9.7 0.00 0.00 0.00 56 1013.5
20260906060603 29 176 4.8 9.7 0.00 0.00 0.00 56 1013.6
20260906055603 30 188 4.8 9.7 0.00 0.00 0.00 56 1013.5
20260906055103 30 193 6.4 9.7 0.00 0.00 0.00 56 1013.4
20260906054603 30 191 4.8 9.7 0.00 0.00 0.00 56 1013.5
20260906054103 30 197 4.8 8.0 0.00 0.00 0.00 56 1013.5
20260906053603 30 197 8.0 9.7 0.00 0.00 0.00 56 1013.4
20260906053104 30 199 4.8 9.7 0.00 0.00 0.00 55 1013.4
20260906052603 30 199 4.8 9.7 0.00 0.00 0.00 55 1013.3
20260906052103 30 191 6.4 9.7 0.00 0.00 0.00 55 1013.2
20260906051104 30 189 6.4 9.7 0.00 0.00 0.00 55 1013.2
20260906050604 30 183 6.4 9.7 0.00 0.00 0.00 55 1013.2
20260906050104 30 174 4.8 9.7 0.00 0.00 0.00 55 1013.1
20260906045604 30 195 3.2 8.0 0.00 0.00 0.00 56 1013.1
20260906045104 30 199 3.2 8.0 0.00 0.00 0.00 55 1013.0
20260906044604 30 188 4.8 8.0 0.00 0.00 0.00 55 1013.0
20260906044104 30 180 4.8 8.0 0.00 0.00 0.00 54 1013.0
20260906043604 30 179 4.8 9.7 0.00 0.00 0.00 54 1013.1
20260906043104 30 181 4.8 9.7 0.00 0.00 0.00 54 1013.1
20260906042604 30 182 4.8 9.7 0.00 0.00 0.00 54 1013.1
20260906042104 30 179 8.0 9.7 0.00 0.00 0.00 55 1013.2
20260906041104 30 169 4.8 8.0 0.00 0.00 0.00 56 1013.3
20260906040603 30 175 3.2 8.0 0.00 0.00 0.00 55 1013.3
20260906040103 30 175 3.2 8.0 0.00 0.00 0.00 55 1013.3
20260906035603 31 172 3.2 8.0 0.00 0.00 0.00 54 1013.3
20260906035103 31 182 3.2 8.0 0.00 0.00 0.00 53 1013.2
20260906034604 31 171 4.8 8.0 0.00 0.00 0.00 52 1013.3
20260906034104 31 171 4.8 8.0 0.00 0.00 0.00 52 1013.2
20260906033604 31 171 4.8 8.0 0.00 0.00 0.00 51 1013.1
20260906033104 31 163 4.8 8.0 0.00 0.00 0.00 51 1013.0
20260906032604 31 160 4.8 8.0 0.00 0.00 0.00 51 1013.1
20260906031603 32 178 3.2 8.0 0.00 0.00 0.00 50 1013.0
20260906031103 32 167 4.8 8.0 0.00 0.00 0.00 50 1013.0
20260906030603 32 175 3.2 8.0 0.00 0.00 0.00 49 1013.0
20260906025603 32 171 4.8 11.3 0.00 0.00 0.00 48 1013.0
20260906025104 32 168 6.4 11.3 0.00 0.00 0.00 48 1013.0
20260906024604 32 171 8.0 11.3 0.00 0.00 0.00 48 1012.9
20260906024104 32 174 4.8 9.7 0.00 0.00 0.00 48 1012.8
20260906023604 32 173 6.4 9.7 0.00 0.00 0.00 48 1012.9
20260906023103 32 159 4.8 8.0 0.00 0.00 0.00 49 1012.8
20260906022604 32 165 4.8 8.0 0.00 0.00 0.00 48 1012.7
20260906022104 32 161 4.8 8.0 0.00 0.00 0.00 48 1012.6
20260906021603 32 161 3.2 4.8 0.00 0.00 0.00 48 1012.6
20260906021104 32 161 3.2 4.8 0.00 0.00 0.00 48 1012.5
20260906020603 32 161 3.2 4.8 0.00 0.00 0.00 48 1012.4
20260906020104 32 161 1.6 3.2 0.00 0.00 0.00 48 1012.4
20260906015603 33 161 1.6 4.8 0.00 0.00 0.00 48 1012.5
20260906015103 33 161 3.2 4.8 0.00 0.00 0.00 47 1012.4
20260906014604 33 161 1.6 3.2 0.00 0.00 0.00 46 1012.4
20260906014105 33 161 1.6 3.2 0.00 0.00 0.00 46 1012.3
20260906013605 34 161 1.6 4.8 0.00 0.00 0.00 45 1012.3
20260906013105 34 161 3.2 4.8 0.00 0.00 0.00 45 1012.1
20260906012605 34 161 3.2 8.0 0.00 0.00 0.00 45 1012.1
20260906012105 34 161 4.8 9.7 0.00 0.00 0.00 45 1012.0
20260906011605 34 171 6.4 9.7 0.00 0.00 0.00 44 1011.9
20260906011105 35 176 6.4 9.7 0.00 0.00 0.00 44 1011.9
20260906010605 35 189 6.4 9.7 0.00 0.00 0.00 43 1011.9
20260906005105 35 170 4.8 9.7 0.00 0.00 0.00 42 1011.8
20260906004605 35 178 3.2 11.3 0.00 0.00 0.00 42 1011.8
20260906004105 36 173 8.0 11.3 0.00 0.00 0.00 42 1011.7
20260906003605 36 182 8.0 19.3 0.00 0.00 0.00 41 1011.7
20260906002605 36 182 9.7 16.1 0.00 0.00 0.00 41 1011.7
20260906002105 36 168 9.7 16.1 0.00 0.00 0.00 40 1011.6
20260906001105 36 177 9.7 16.1 0.00 0.00 0.00 40 1011.7
20260906000605 37 170 9.7 16.1 0.00 0.00 0.00 40 1011.6
20260906000105 37 145 9.7 16.1 0.00 0.00 0.00 39 1011.5
20260905235605 37 113 4.8 14.5 0.00 0.00 0.00 38 1011.5
20260905235105 37 123 4.8 19.3 0.00 0.00 0.00 38 1011.5
20260905234605 37 137 9.7 19.3 0.00 0.00 0.00 39 1011.5
20260905234105 37 173 8.0 20.9 0.00 0.00 0.00 39 1011.4
20260905233105 37 186 9.7 19.3 0.00 0.00 0.00 39 1011.3
20260905232605 37 148 12.9 19.3 0.00 0.00 0.00 38 1011.3
20260905232105 37 170 9.7 19.3 0.00 0.00 0.00 38 1011.3
20260905231605 37 167 8.0 19.3 0.00 0.00 0.00 38 1011.3
20260905230604 37 174 6.4 19.3 0.00 0.00 0.00 38 1011.3
20260905230105 37 168 11.3 24.1 0.00 0.00 0.00 38 1011.3
20260905225605 37 174 11.3 27.4 0.00 0.00 0.00 38 1011.3
20260905224605 37 136 9.7 22.5 0.00 0.00 0.00 38 1011.2
20260905223605 37 170 11.3 22.5 0.00 0.00 0.00 38 1011.2
20260905222605 37 129 14.5 25.7 0.00 0.00 0.00 38 1011.3
20260905222105 37 142 16.1 25.7 0.00 0.00 0.00 38 1011.2
20260905221106 38 177 11.3 19.3 0.00 0.00 0.00 37 1011.3
20260905220105 37 164 14.5 25.7 0.00 0.00 0.00 38 1011.4
20260905214605 38 181 14.5 22.5 0.00 0.00 0.00 38 1011.5
20260905214104 38 125 9.7 27.4 0.00 0.00 0.00 38 1011.6
20260905213605 38 139 14.5 27.4 0.00 0.00 0.00 38 1011.6
20260905213105 38 177 17.7 25.7 0.00 0.00 0.00 38 1011.6
20260905212105 38 172 12.9 29.0 0.00 0.00 0.00 37 1011.9
20260905211604 38 193 14.5 27.4 0.00 0.00 0.00 37 1011.9
20260905211104 37 171 14.5 24.1 0.00 0.00 0.00 38 1011.9